SCU4 RPMD-RPMD

Flight info

Callsign SCU4
Flight time 0h 29m
Altitude 5000
Route ARPAS
Aircraft PA24/L-SDGRY/S

Departure

Time 2026-04-27 05:51
Airport Francisco Bangoy International Airport (RPMD)

Arrival

Time 2026-04-27 06:20
Airport Francisco Bangoy International Airport (RPMD)
Time Latitude Longitude Altitude Speed Heading
2026-04-27 05:34 7.12728 125.65404 113 ft 0 kts 79°
2026-04-27 05:40 7.12728 125.65423 113 ft 3 kts 84°
2026-04-27 05:40 7.12742 125.65438 113 ft 5 kts 355°
2026-04-27 05:41 7.12800 125.65425 113 ft 9 kts 348°
2026-04-27 05:41 7.12861 125.65410 113 ft 8 kts 348°
2026-04-27 05:41 7.12912 125.65400 113 ft 6 kts 344°
2026-04-27 05:41 7.12955 125.65389 113 ft 5 kts 350°
2026-04-27 05:42 7.12997 125.65381 113 ft 8 kts 349°
2026-04-27 05:42 7.13062 125.65350 113 ft 8 kts 322°
2026-04-27 05:42 7.13084 125.65326 113 ft 0 kts 243°
2026-04-27 05:45 7.13081 125.65322 113 ft 3 kts 240°
2026-04-27 05:46 7.13056 125.65285 113 ft 6 kts 236°
2026-04-27 05:46 7.13050 125.65259 113 ft 0 kts 264°
2026-04-27 05:46 7.13055 125.65242 113 ft 0 kts 334°
2026-04-27 05:48 7.13057 125.65241 113 ft 2 kts 333°
2026-04-27 05:48 7.13060 125.65240 113 ft 0 kts 332°
2026-04-27 05:49 7.13064 125.65237 113 ft 3 kts 332°
2026-04-27 05:49 7.13093 125.65208 113 ft 5 kts 248°
2026-04-27 05:49 7.13088 125.65201 113 ft 0 kts 229°
2026-04-27 05:49 7.13069 125.65180 113 ft 22 kts 224°
2026-04-27 05:50 7.12848 125.64924 113 ft 69 kts 227°
2026-04-27 05:50 7.12547 125.64566 302 ft 67 kts 222°
2026-04-27 05:50 7.12236 125.64198 442 ft 70 kts 220°
2026-04-27 05:50 7.11896 125.63836 562 ft 73 kts 221°
2026-04-27 05:51 7.11566 125.63438 708 ft 72 kts 223°
2026-04-27 05:51 7.11269 125.63038 844 ft 73 kts 225°
2026-04-27 05:51 7.10964 125.62605 969 ft 75 kts 225°
2026-04-27 05:51 7.10585 125.62291 1116 ft 71 kts 180°
2026-04-27 05:52 7.10076 125.62268 1242 ft 73 kts 176°
2026-04-27 05:52 7.09574 125.62221 1376 ft 72 kts 176°
2026-04-27 05:52 7.09074 125.62177 1521 ft 72 kts 174°
2026-04-27 05:52 7.08565 125.62124 1649 ft 74 kts 175°
2026-04-27 05:53 7.08052 125.62067 1791 ft 74 kts 174°
2026-04-27 05:53 7.07529 125.62007 1923 ft 75 kts 175°
2026-04-27 05:53 7.07004 125.61945 2058 ft 75 kts 175°
2026-04-27 05:53 7.06481 125.61886 2197 ft 75 kts 175°
2026-04-27 05:54 7.05955 125.61825 2325 ft 75 kts 174°
2026-04-27 05:54 7.05431 125.61776 2477 ft 71 kts 160°
2026-04-27 05:54 7.04962 125.61963 2588 ft 73 kts 149°
2026-04-27 05:54 7.04485 125.62151 2721 ft 72 kts 146°
2026-04-27 05:55 7.04012 125.62342 2850 ft 73 kts 147°
2026-04-27 05:55 7.03538 125.62541 2975 ft 73 kts 146°
2026-04-27 05:55 7.03068 125.62738 3101 ft 73 kts 146°
2026-04-27 05:55 7.02587 125.62937 3226 ft 73 kts 147°
2026-04-27 05:56 7.02110 125.63133 3355 ft 74 kts 147°
2026-04-27 05:56 7.01630 125.63326 3485 ft 73 kts 147°
2026-04-27 05:56 7.01145 125.63522 3602 ft 74 kts 146°
2026-04-27 05:56 7.00655 125.63713 3724 ft 75 kts 147°
2026-04-27 05:57 7.00163 125.63908 3841 ft 75 kts 147°
2026-04-27 05:57 6.99668 125.64104 3952 ft 77 kts 147°
2026-04-27 05:57 6.99125 125.64324 3982 ft 91 kts 148°
2026-04-27 05:57 6.98515 125.64581 3980 ft 92 kts 149°
2026-04-27 05:58 6.97928 125.64837 3973 ft 88 kts 149°
2026-04-27 05:58 6.97365 125.65085 3968 ft 84 kts 148°
2026-04-27 05:58 6.96835 125.65316 3969 ft 81 kts 148°
2026-04-27 05:58 6.96412 125.65649 3987 ft 76 kts 107°
2026-04-27 05:59 6.96443 125.66175 3986 ft 78 kts 58°
2026-04-27 05:59 6.96763 125.66659 3974 ft 84 kts 59°
2026-04-27 05:59 6.97035 125.67201 3976 ft 87 kts 61°
2026-04-27 05:59 6.97475 125.67634 3992 ft 93 kts 20°
2026-04-27 06:00 6.98856 125.67535 3979 ft 103 kts 349°
2026-04-27 06:00 6.99559 125.67367 3979 ft 104 kts 349°
2026-04-27 06:00 7.00267 125.67196 3976 ft 104 kts 348°
2026-04-27 06:01 7.00983 125.67087 3961 ft 103 kts
2026-04-27 06:01 7.01596 125.67417 3957 ft 99 kts 49°
2026-04-27 06:01 7.01810 125.68064 3967 ft 99 kts 84°
2026-04-27 06:01 7.01818 125.68749 3987 ft 98 kts 85°
2026-04-27 06:02 7.02054 125.69388 3999 ft 98 kts 57°
2026-04-27 06:02 7.02444 125.69968 3993 ft 99 kts 54°
2026-04-27 06:02 7.02814 125.70551 3995 ft 99 kts 56°
2026-04-27 06:02 7.03187 125.71146 3994 ft 99 kts 56°
2026-04-27 06:03 7.03583 125.71723 4001 ft 99 kts 48°
2026-04-27 06:03 7.04037 125.72252 3996 ft 100 kts 49°
2026-04-27 06:03 7.04478 125.72802 3992 ft 100 kts 50°
2026-04-27 06:03 7.04920 125.73338 3999 ft 99 kts 43°
2026-04-27 06:04 7.05437 125.73810 3999 ft 100 kts 41°
2026-04-27 06:04 7.05964 125.74283 3999 ft 101 kts 41°
2026-04-27 06:04 7.06530 125.74707 4000 ft 101 kts 30°
2026-04-27 06:04 7.07143 125.75052 3993 ft 101 kts 30°
2026-04-27 06:05 7.07765 125.75397 3993 ft 101 kts 30°
2026-04-27 06:05 7.08425 125.75677 3995 ft 102 kts 21°
2026-04-27 06:05 7.09094 125.75930 3991 ft 102 kts 21°
2026-04-27 06:05 7.09773 125.76181 3985 ft 103 kts 18°
2026-04-27 06:06 7.10482 125.76305 3988 ft 102 kts 11°
2026-04-27 06:06 7.11186 125.76426 3983 ft 103 kts 11°
2026-04-27 06:06 7.11903 125.76537 3991 ft 103 kts
2026-04-27 06:06 7.12631 125.76533 3987 ft 104 kts
2026-04-27 06:07 7.13361 125.76532 3981 ft 104 kts
2026-04-27 06:07 7.14084 125.76473 3988 ft 105 kts 349°
2026-04-27 06:07 7.14812 125.76335 3982 ft 105 kts 352°
2026-04-27 06:07 7.15539 125.76231 3981 ft 105 kts 355°
2026-04-27 06:08 7.16254 125.76038 3987 ft 106 kts 343°
2026-04-27 06:08 7.16966 125.75806 3983 ft 106 kts 348°
2026-04-27 06:08 7.17680 125.75602 3988 ft 107 kts 341°
2026-04-27 06:08 7.18360 125.75268 3981 ft 108 kts 337°
2026-04-27 06:09 7.19038 125.74931 3973 ft 108 kts 337°
2026-04-27 06:09 7.19681 125.74514 3970 ft 110 kts 326°
2026-04-27 06:09 7.20307 125.74052 3962 ft 110 kts 328°
2026-04-27 06:09 7.20935 125.73605 3959 ft 110 kts 325°
2026-04-27 06:10 7.21498 125.73061 3959 ft 111 kts 315°
2026-04-27 06:10 7.22009 125.72478 3955 ft 111 kts 313°
2026-04-27 06:10 7.22447 125.71841 3974 ft 110 kts 304°
2026-04-27 06:10 7.22863 125.71178 3978 ft 111 kts 304°
2026-04-27 06:11 7.23266 125.70518 3977 ft 112 kts 300°
2026-04-27 06:11 7.23576 125.69791 3982 ft 112 kts 295°
2026-04-27 06:11 7.23880 125.69065 3984 ft 113 kts 295°
2026-04-27 06:11 7.24106 125.68299 3990 ft 114 kts 283°
2026-04-27 06:12 7.24270 125.67525 3988 ft 114 kts 283°
2026-04-27 06:12 7.24421 125.66733 3994 ft 114 kts 275°
2026-04-27 06:12 7.24437 125.65931 3994 ft 115 kts 270°
2026-04-27 06:12 7.24449 125.65121 3996 ft 115 kts 271°
2026-04-27 06:13 7.24427 125.64313 3999 ft 115 kts 261°
2026-04-27 06:13 7.24301 125.63508 3994 ft 116 kts 260°
2026-04-27 06:13 7.24153 125.62710 3998 ft 115 kts 252°
2026-04-27 06:13 7.23944 125.61919 3997 ft 115 kts 254°
2026-04-27 06:14 7.23741 125.61143 3999 ft 115 kts 254°
2026-04-27 06:14 7.23483 125.60378 4006 ft 115 kts 242°
2026-04-27 06:14 7.23127 125.59649 4004 ft 116 kts 235°
2026-04-27 06:14 7.22477 125.59229 4016 ft 110 kts 184°
2026-04-27 06:15 7.21753 125.59360 4015 ft 106 kts 152°
2026-04-27 06:15 7.21043 125.59646 3899 ft 105 kts 153°
2026-04-27 06:15 7.20387 125.59903 3665 ft 100 kts 153°
2026-04-27 06:15 7.19736 125.60165 3385 ft 100 kts 154°
2026-04-27 06:16 7.19117 125.60455 3121 ft 98 kts 147°
2026-04-27 06:16 7.18530 125.60784 2892 ft 91 kts 143°
2026-04-27 06:16 7.18008 125.61125 2668 ft 90 kts 143°
2026-04-27 06:16 7.17472 125.61448 2419 ft 91 kts 144°
2026-04-27 06:17 7.16911 125.61744 2181 ft 90 kts 150°
2026-04-27 06:17 7.16319 125.61961 1951 ft 90 kts 159°
2026-04-27 06:17 7.15694 125.62114 1672 ft 93 kts 157°
2026-04-27 06:17 7.15126 125.62364 1468 ft 87 kts 150°
2026-04-27 06:18 7.14622 125.62683 1241 ft 87 kts 137°
2026-04-27 06:18 7.14182 125.63123 1036 ft 92 kts 130°
2026-04-27 06:18 7.14111 125.63700 924 ft 90 kts 68°
2026-04-27 06:18 7.14495 125.64223 864 ft 92 kts 52°
2026-04-27 06:19 7.14905 125.64714 829 ft 89 kts 54°
2026-04-27 06:19 7.15258 125.65234 771 ft 88 kts 72°
2026-04-27 06:19 7.15102 125.65762 685 ft 85 kts 141°
2026-04-27 06:19 7.14621 125.66099 526 ft 79 kts 149°
2026-04-27 06:20 7.14119 125.66219 423 ft 73 kts 188°
2026-04-27 06:20 7.13713 125.65903 258 ft 73 kts 222°
2026-04-27 06:20 7.13371 125.65521 142 ft 71 kts 226°
2026-04-27 06:20 7.13109 125.65210 113 ft 44 kts 229°
2026-04-27 06:21 7.12981 125.65079 113 ft 15 kts 192°
2026-04-27 06:21 7.12934 125.65111 113 ft 4 kts 110°
2026-04-27 06:21 7.12908 125.65144 113 ft 10 kts 140°
2026-04-27 06:21 7.12870 125.65146 113 ft 3 kts 231°
2026-04-27 06:22 7.12819 125.65112 113 ft 1 kts 168°
2026-04-27 06:22 7.12818 125.65113 113 ft 0 kts 144°